FW1477 Weather Reports


time (UTC)temp
C
wind
direction
speed
KPH
gust
KPH
rain 1hr
cm
rain 24hr
cm
rain mn
cm
humidity
%
barometer
mb
20260901211036 22 0.0 0.0 0.00 0.20 0.10 52 1020.8
20260901210016 24 0.0 0.0 0.00 0.20 0.10 47 1021.2
20260901205018 25 0.0 1.6 0.03 0.20 0.10 47 1021.5
20260901204016 26 0.0 0.0 0.03 0.20 0.10 45 1022.1
20260901203016 26 0.0 0.0 0.03 0.23 0.10 46 1022.1
20260901202016 26 0.0 0.0 0.03 0.23 0.10 46 1022.4
20260901201016 26 0.0 0.0 0.03 0.23 0.10 47 1022.7
20260901200016 26 0.0 0.0 0.03 0.23 0.10 44 1023.0
20260901195036 26 0.0 0.0 0.00 0.20 0.08 46 1023.1
20260901194017 26 0.0 0.0 0.00 0.20 0.08 44 1023.3
20260901193016 26 0.0 0.0 0.00 0.23 0.08 45 1023.4
20260901191016 25 0.0 0.0 0.00 0.23 0.08 47 1023.4
20260901190016 25 0.0 0.0 0.00 0.23 0.08 48 1023.5
20260901185037 24 0.0 0.0 0.00 0.23 0.08 49 1023.2
20260901184036 24 0.0 0.0 0.00 0.23 0.08 49 1023.2
20260901183036 24 0.0 0.0 0.00 0.23 0.08 50 1023.3
20260901182016 24 0.0 0.0 0.00 0.23 0.08 50 1023.5
20260901181016 24 0.0 0.0 0.00 0.23 0.08 51 1023.7
20260901180015 23 0.0 0.0 0.00 0.23 0.08 53 1023.9
20260901175016 23 0.0 0.0 0.03 0.25 0.08 54 1023.5
20260901174018 23 0.0 0.0 0.03 0.25 0.08 52 1023.5
20260901173016 22 0.0 0.0 0.03 0.25 0.08 53 1023.6
20260901172015 22 0.0 0.0 0.03 0.28 0.08 55 1023.8
20260901171015 22 0.0 0.0 0.03 0.28 0.08 56 1023.9
20260901170016 22 0.0 0.0 0.03 0.28 0.08 55 1023.8
20260901165056 22 0.0 0.0 0.00 0.25 0.05 57 1023.9
20260901164016 22 0.0 0.0 0.00 0.25 0.05 56 1023.5
20260901163037 21 0.0 0.0 0.00 0.25 0.05 59 1023.6
20260901162015 21 0.0 0.0 0.00 0.28 0.05 61 1023.1
20260901161056 20 0.0 0.0 0.00 0.28 0.05 61 1023.1
20260901160056 21 0.0 1.6 0.00 0.28 0.05 59 1023.1
20260901155035 20 225 4.8 9.7 0.00 0.28 0.05 64 1022.7
20260901154036 20 225 3.2 11.3 0.00 0.28 0.05 66 1022.7
20260901153015 19 225 4.8 9.7 0.03 0.30 0.05 69 1022.3
20260901152015 18 225 3.2 11.3 0.03 0.30 0.05 69 1022.3
20260901151035 18 225 4.8 11.3 0.03 0.30 0.05 71 1022.4
20260901150035 18 225 6.4 14.5 0.03 0.30 0.05 72 1022.4
20260901145015 18 225 9.7 16.1 0.03 0.30 0.05 73 1022.3
20260901144015 17 225 9.7 14.5 0.03 0.30 0.05 75 1021.9
20260901143016 17 225 9.7 14.5 0.00 0.30 0.05 77 1021.9
20260901142015 17 225 8.0 16.1 0.00 0.30 0.05 78 1022.0
20260901141017 16 225 6.4 12.9 0.00 0.30 0.05 79 1021.5
20260901140017 16 225 6.4 11.3 0.00 0.30 0.05 81 1021.4
20260901135017 16 225 9.7 14.5 0.00 0.30 0.05 81 1021.1
20260901134017 16 225 9.7 14.5 0.00 0.33 0.05 83 1021.0
20260901133018 15 225 9.7 16.1 0.00 0.33 0.05 84 1020.5
20260901132017 15 225 12.9 17.7 0.00 0.33 0.05 85 1020.3
20260901131017 15 225 11.3 17.7 0.00 0.33 0.05 85 1020.2
20260901130017 15 225 9.7 14.5 0.00 0.33 0.05 85 1020.2
20260901125018 16 225 9.7 16.1 0.00 0.33 0.05 85 1020.5
20260901124017 16 225 11.3 17.7 0.00 0.33 0.05 84 1020.4